2023/07/20 00:00:00, 0.2,21.1
2023/07/20 00:10:00, 0.2,21.2
2023/07/20 00:20:00, 0.2,20.9
2023/07/20 00:30:00, 0.1,21.3
2023/07/20 00:40:00, 0.1,21.2
2023/07/20 00:50:00, 0.1,21.2
2023/07/20 01:00:00, 0.1,21.2
2023/07/20 01:10:00, 0.2,21.1
2023/07/20 01:20:00, 7.5,21.2
2023/07/20 01:30:00,12.3,21.2
2023/07/20 01:40:00,13.3,21.1
2023/07/20 01:50:00,13.8,21.2
2023/07/20 02:00:00,14.4,21.0
2023/07/20 02:10:00,13.7,21.0
2023/07/20 02:20:00, 4.7,20.9
2023/07/20 02:30:00, 0.2,20.8
2023/07/20 02:40:00, 0.2,21.0
2023/07/20 02:50:00, 0.2,20.9
2023/07/20 03:00:00, 6.5,20.9
2023/07/20 03:10:00,14.9,20.8
2023/07/20 03:20:00,15.9,20.9
2023/07/20 03:30:00,16.2,20.9
2023/07/20 03:40:00,16.4,20.8
2023/07/20 03:50:00,16.0,20.8
2023/07/20 04:00:00,15.9,20.8
2023/07/20 04:10:00,15.7,20.8
2023/07/20 04:20:00,15.5,20.7
2023/07/20 04:30:00,15.5,20.7
2023/07/20 04:40:00,15.5,20.5
2023/07/20 04:50:00,15.8,20.8
2023/07/20 05:00:00,15.8,20.4
2023/07/20 05:10:00,16.0,20.5
2023/07/20 05:20:00,16.3,20.4
2023/07/20 05:30:00,16.2,20.4
2023/07/20 05:40:00,16.2,20.4
2023/07/20 05:50:00,16.4,20.4
2023/07/20 06:00:00,16.2,20.4
2023/07/20 06:10:00,15.9,20.6
2023/07/20 06:20:00,15.6,20.6
2023/07/20 06:30:00,15.4,20.9
2023/07/20 06:40:00,15.1,21.2
2023/07/20 06:50:00,15.4,21.5
2023/07/20 07:00:00,15.3,22.4
2023/07/20 07:10:00,15.2,22.5
2023/07/20 07:20:00,15.1,22.0
2023/07/20 07:30:00,15.1,22.1
2023/07/20 07:40:00,14.9,22.7
2023/07/20 07:50:00,14.8,22.3
2023/07/20 08:00:00,14.6,23.3
2023/07/20 08:10:00,14.5,23.7
2023/07/20 08:20:00,14.5,24.5
2023/07/20 08:30:00,14.7,25.0
2023/07/20 08:40:00,14.6,25.9
2023/07/20 08:50:00,14.7,25.7
2023/07/20 09:00:00,15.0,24.2
2023/07/20 09:10:00,15.0,25.4
2023/07/20 09:20:00,14.7,26.5
2023/07/20 09:30:00, 0.0,25.4
2023/07/20 09:40:00,15.1,25.4
2023/07/20 09:50:00,---,26.5
2023/07/20 10:00:00, 0.0,27.8
2023/07/20 10:10:00, 0.0,27.0
2023/07/20 10:20:00, 0.0,26.8
2023/07/20 10:30:00, 1.1,26.5
2023/07/20 10:40:00,---,26.8
2023/07/20 10:50:00, 0.0,28.1
2023/07/20 11:00:00,---,27.6
2023/07/20 11:10:00,---,29.9
2023/07/20 11:20:00,---,30.1
2023/07/20 11:30:00, 0.0,29.9
2023/07/20 11:40:00, 0.0,30.9
2023/07/20 11:50:00, 0.0,30.7
2023/07/20 12:00:00, 0.1,30.6
2023/07/20 12:10:00, 4.9,30.5
2023/07/20 12:20:00,16.6,30.4
2023/07/20 12:30:00,16.6,30.5
2023/07/20 12:40:00,16.3,29.7
2023/07/20 12:50:00,15.4,30.0
2023/07/20 13:00:00,14.7,30.4
2023/07/20 13:10:00,14.8,30.3
2023/07/20 13:20:00,15.3,29.5
2023/07/20 13:30:00,15.6,28.7
2023/07/20 13:40:00,15.1,29.0
2023/07/20 13:50:00,14.9,29.6
2023/07/20 14:00:00,14.3,29.7
2023/07/20 14:10:00,13.5,29.4
2023/07/20 14:20:00,13.7,29.8
2023/07/20 14:30:00,13.9,30.2
2023/07/20 14:40:00,14.2,29.9
2023/07/20 14:50:00,14.8,29.6
2023/07/20 15:00:00,14.8,30.2
2023/07/20 15:10:00,14.8,30.4
2023/07/20 15:20:00,14.7,29.9
2023/07/20 15:30:00,14.6,29.9
2023/07/20 15:40:00,14.2,29.7
2023/07/20 15:50:00,13.8,28.8
2023/07/20 16:00:00,13.2,28.6
2023/07/20 16:10:00,12.6,28.8
2023/07/20 16:20:00,12.6,29.0
2023/07/20 16:30:00,13.0,28.3
2023/07/20 16:40:00,12.9,27.9
2023/07/20 16:50:00,13.5,27.2
2023/07/20 17:00:00,13.8,27.0
2023/07/20 17:10:00,14.1,26.2
2023/07/20 17:20:00,14.3,26.9
2023/07/20 17:30:00,14.7,26.1
2023/07/20 17:40:00,15.0,25.2
2023/07/20 17:50:00,10.4,25.2
2023/07/20 18:00:00, 0.8,25.3
2023/07/20 18:10:00, 0.0,24.7
2023/07/20 18:20:00, 0.0,24.4
2023/07/20 18:30:00, 0.1,24.3
2023/07/20 18:40:00, 0.0,24.0
2023/07/20 18:50:00, 0.1,24.0
2023/07/20 19:00:00, 0.0,23.9
2023/07/20 19:10:00, 0.1,23.3
2023/07/20 19:20:00, 0.0,22.9
2023/07/20 19:30:00, 0.1,22.9
2023/07/20 19:40:00, 0.1,22.5
2023/07/20 19:50:00, 0.0,22.5
2023/07/20 20:00:00, 0.1,22.3
2023/07/20 20:10:00, 0.1,22.3
2023/07/20 20:20:00, 0.1,21.8
2023/07/20 20:30:00, 0.1,21.8
2023/07/20 20:40:00, 0.1,21.8
2023/07/20 20:50:00, 0.1,21.5
2023/07/20 21:00:00, 0.1,21.6
2023/07/20 21:10:00, 0.1,21.4
2023/07/20 21:20:00, 0.1,21.3
2023/07/20 21:30:00, 0.0,21.3
2023/07/20 21:40:00, 0.0,21.0
2023/07/20 21:50:00, 0.0,21.2
2023/07/20 22:00:00, 0.0,21.0
2023/07/20 22:10:00, 0.0,20.9
2023/07/20 22:20:00, 0.0,20.7
2023/07/20 22:30:00, 0.0,20.6
2023/07/20 22:40:00, 0.0,20.4
2023/07/20 22:50:00, 0.0,20.8
2023/07/20 23:00:00, 0.0,20.5
2023/07/20 23:10:00, 0.1,20.4
2023/07/20 23:20:00, 0.0,20.4
2023/07/20 23:30:00, 0.0,20.2
2023/07/20 23:40:00, 0.1,20.2
2023/07/20 23:50:00, 0.1,20.4
